User: anonymous   Login
Location: Newark
(28.4500°N, 16.2500°W)
Time: 22:48:45
(UTC+00:00)
Language:

NOAA 15 - Orbit

View from above orbital plane
View from above orbital plane
View from above satellite
View from above satellite

Ground track
Ground track

The orbit data is extracted from the following two-line orbital elements,

1 25338U 98030A   19260.49662680  .00000019  00000-0  26629-4 0  9999
2 25338  98.7433 281.5831 0010046 345.3030  14.7856 14.25931060110187
Epoch (UTC): 17 September 2019 11:55:08
Eccentricity: 0.0010046
inclination: 98.7433°
perigee height: 798 km
apogee height: 812 km
right ascension of ascending node: 281.5831°
argument of perigee: 345.3030°
revolutions per day: 14.25931060
mean anomaly at epoch: 14.7856°
orbit number at epoch: 11018

The dashed part of the orbit path shows where the satellite is in the earth's shadow,  

DLR